| time (UTC) | temp F | wind direction | speed knots | gust knots | rain 1hr in | rain 24hr in | rain mn in | humidity % | barometer mb |
| 20260506203005 | 51 | 267 | 3.5 | 6.1 | 0.00 | 0.03 | 0.03 | 76 | 1011.1 |
| 20260506202029 | 51 | 267 | 3.5 | 6.1 | 0.00 | 0.03 | 0.03 | 77 | 1011.1 |
| 20260506202023 | 51 | 267 | 3.5 | 6.1 | 0.00 | 0.03 | 0.03 | 79 | 1011.0 |
| 20260506201046 | 51 | 270 | 2.6 | 5.2 | 0.00 | 0.03 | 0.03 | 79 | 1011.0 |
| 20260506201035 | 51 | 270 | 2.6 | 5.2 | 0.00 | 0.03 | 0.03 | 81 | 1010.9 |
| 20260506200005 | 51 | 255 | 1.7 | 2.6 | 0.00 | 0.03 | 0.03 | 81 | 1010.9 |
| 20260506195009 | 51 | 225 | 0.9 | 2.6 | 0.00 | 0.03 | 0.03 | 84 | 1010.6 |
| 20260506194042 | 51 | 225 | 0.9 | 2.6 | 0.00 | 0.03 | 0.03 | 84 | 1010.6 |
| 20260506194033 | 51 | 225 | 0.9 | 2.6 | 0.00 | 0.03 | 0.03 | 83 | 1010.5 |
| 20260506193034 | 52 | 223 | 0.0 | 1.7 | 0.00 | 0.03 | 0.03 | 81 | 1010.3 |
| 20260506192007 | 52 | 272 | 2.6 | 4.3 | 0.00 | 0.03 | 0.03 | 81 | 1010.3 |
| 20260506192005 | 52 | 272 | 2.6 | 4.3 | 0.00 | 0.03 | 0.03 | 79 | 1010.3 |
| 20260506191008 | 52 | 272 | 3.5 | 6.1 | 0.00 | 0.03 | 0.03 | 79 | 1010.3 |
| 20260506190040 | 52 | 272 | 3.5 | 6.1 | 0.00 | 0.04 | 0.03 | 78 | 1010.0 |
| 20260506185015 | 52 | 273 | 3.5 | 6.1 | 0.00 | 0.06 | 0.03 | 78 | 1010.0 |
| 20260506184039 | 53 | 272 | 3.5 | 5.2 | 0.00 | 0.06 | 0.03 | 77 | 1009.9 |
| 20260506184033 | 53 | 272 | 3.5 | 5.2 | 0.00 | 0.06 | 0.03 | 77 | 1009.8 |
| 20260506183024 | 53 | 290 | 2.6 | 7.0 | 0.00 | 0.09 | 0.03 | 78 | 1009.6 |
| 20260506182013 | 53 | 280 | 2.6 | 5.2 | 0.00 | 0.09 | 0.03 | 77 | 1009.4 |
| 20260506181049 | 53 | 280 | 2.6 | 5.2 | 0.00 | 0.13 | 0.03 | 77 | 1009.4 |
| 20260506181042 | 54 | 280 | 2.6 | 5.2 | 0.00 | 0.13 | 0.03 | 77 | 1009.3 |
| 20260506180006 | 54 | 287 | 2.6 | 4.3 | 0.00 | 0.23 | 0.03 | 77 | 1009.3 |
| 20260506175046 | 54 | 287 | 2.6 | 4.3 | 0.00 | 0.28 | 0.03 | 76 | 1009.1 |
| 20260506175040 | 54 | 287 | 2.6 | 4.3 | 0.00 | 0.28 | 0.03 | 75 | 1009.0 |
| 20260506174015 | 54 | 292 | 2.6 | 5.2 | 0.00 | 0.34 | 0.03 | 75 | 1009.0 |
| 20260506174013 | 54 | 292 | 2.6 | 5.2 | 0.00 | 0.34 | 0.03 | 76 | 1008.9 |
| 20260506173042 | 54 | 292 | 2.6 | 5.2 | 0.00 | 0.37 | 0.03 | 76 | 1008.9 |
| 20260506173036 | 54 | 292 | 2.6 | 5.2 | 0.00 | 0.37 | 0.03 | 76 | 1008.8 |
| 20260506172044 | 54 | 276 | 3.5 | 7.8 | 0.00 | 0.39 | 0.03 | 76 | 1008.8 |
| 20260506172037 | 54 | 276 | 3.5 | 7.8 | 0.00 | 0.39 | 0.03 | 76 | 1008.7 |
| 20260506171011 | 54 | 295 | 2.6 | 6.1 | 0.00 | 0.39 | 0.03 | 76 | 1008.7 |
| 20260506170012 | 54 | 284 | 3.5 | 6.1 | 0.00 | 0.39 | 0.03 | 76 | 1008.7 |
| 20260506170010 | 54 | 284 | 3.5 | 6.1 | 0.00 | 0.39 | 0.03 | 78 | 1008.7 |
| 20260506165040 | 54 | 284 | 3.5 | 6.1 | 0.00 | 0.39 | 0.03 | 78 | 1008.7 |
| 20260506165033 | 54 | 284 | 3.5 | 6.1 | 0.00 | 0.39 | 0.03 | 79 | 1008.6 |
| 20260506164024 | 54 | 272 | 3.5 | 7.0 | 0.00 | 0.39 | 0.03 | 79 | 1008.5 |
| 20260506163012 | 54 | 288 | 1.7 | 5.2 | 0.00 | 0.39 | 0.03 | 79 | 1008.6 |
| 20260506162047 | 54 | 288 | 1.7 | 5.2 | 0.00 | 0.39 | 0.03 | 79 | 1008.6 |
| 20260506162040 | 54 | 288 | 1.7 | 5.2 | 0.00 | 0.39 | 0.03 | 79 | 1008.6 |
| 20260506161045 | 54 | 277 | 2.6 | 5.2 | 0.00 | 0.39 | 0.03 | 79 | 1008.6 |
| 20260506161039 | 54 | 277 | 2.6 | 5.2 | 0.00 | 0.39 | 0.03 | 79 | 1008.6 |
| 20260506160042 | 54 | 276 | 2.6 | 5.2 | 0.00 | 0.39 | 0.03 | 79 | 1008.5 |
| 20260506155033 | 54 | 277 | 2.6 | 4.3 | 0.00 | 0.39 | 0.03 | 79 | 1008.6 |
| 20260506154013 | 54 | 290 | 2.6 | 6.1 | 0.00 | 0.39 | 0.03 | 79 | 1008.6 |
| 20260506154011 | 54 | 290 | 2.6 | 6.1 | 0.00 | 0.39 | 0.03 | 80 | 1008.6 |
| 20260506153007 | 54 | 288 | 3.5 | 7.0 | 0.00 | 0.39 | 0.03 | 80 | 1008.5 |
| 20260506152009 | 54 | 285 | 2.6 | 4.3 | 0.00 | 0.39 | 0.03 | 80 | 1008.5 |
| 20260506151039 | 54 | 285 | 2.6 | 4.3 | 0.00 | 0.39 | 0.03 | 79 | 1008.4 |
| 20260506151033 | 54 | 285 | 2.6 | 4.3 | 0.00 | 0.39 | 0.03 | 80 | 1008.3 |
| 20260506150012 | 54 | 280 | 3.5 | 7.8 | 0.00 | 0.39 | 0.03 | 80 | 1008.3 |
| 20260506145045 | 54 | 280 | 3.5 | 7.8 | 0.00 | 0.39 | 0.03 | 81 | 1008.2 |
| 20260506145038 | 54 | 280 | 3.5 | 7.8 | 0.00 | 0.39 | 0.03 | 81 | 1008.1 |
| 20260506144015 | 54 | 283 | 3.5 | 7.0 | 0.00 | 0.39 | 0.03 | 81 | 1008.1 |
| 20260506143022 | 55 | 283 | 3.5 | 7.0 | 0.00 | 0.39 | 0.03 | 80 | 1007.9 |
| 20260506141004 | 55 | 262 | 3.5 | 6.1 | 0.00 | 0.39 | 0.03 | 81 | 1007.9 |
| 20260506140023 | 55 | 262 | 3.5 | 6.1 | 0.00 | 0.41 | 0.03 | 81 | 1007.9 |
| 20260506140016 | 54 | 262 | 3.5 | 6.1 | 0.00 | 0.41 | 0.03 | 82 | 1008.0 |
| 20260506135037 | 54 | 265 | 3.5 | 6.1 | 0.00 | 0.41 | 0.03 | 82 | 1008.0 |
| 20260506135030 | 54 | 265 | 3.5 | 6.1 | 0.00 | 0.41 | 0.03 | 84 | 1008.0 |
| 20260506134042 | 54 | 271 | 3.5 | 7.0 | 0.00 | 0.42 | 0.03 | 84 | 1008.0 |
| 20260506134035 | 54 | 271 | 3.5 | 7.0 | 0.00 | 0.42 | 0.03 | 83 | 1008.1 |
| 20260506133032 | 54 | 276 | 3.5 | 7.0 | 0.00 | 0.42 | 0.03 | 84 | 1008.0 |
| 20260506131043 | 54 | 273 | 4.3 | 7.8 | 0.00 | 0.43 | 0.03 | 84 | 1008.0 |
| 20260506131037 | 54 | 273 | 4.3 | 7.8 | 0.00 | 0.43 | 0.03 | 83 | 1007.9 |
| 20260506130012 | 54 | 279 | 3.5 | 6.1 | 0.00 | 0.43 | 0.03 | 83 | 1007.9 |
| 20260506125024 | 55 | 279 | 3.5 | 6.1 | 0.00 | 0.44 | 0.03 | 84 | 1007.8 |
| 20260506124015 | 55 | 262 | 3.5 | 6.1 | 0.00 | 0.44 | 0.03 | 84 | 1007.8 |
| 20260506123042 | 55 | 262 | 3.5 | 6.1 | 0.00 | 0.44 | 0.03 | 84 | 1007.7 |
| 20260506123036 | 55 | 262 | 3.5 | 6.1 | 0.00 | 0.44 | 0.03 | 84 | 1007.6 |
| 20260506122014 | 55 | 269 | 4.3 | 7.8 | 0.00 | 0.44 | 0.03 | 85 | 1007.5 |
| 20260506121005 | 55 | 277 | 3.5 | 7.0 | 0.00 | 0.46 | 0.03 | 85 | 1007.5 |
| 20260506120042 | 55 | 277 | 3.5 | 7.0 | 0.00 | 0.46 | 0.03 | 86 | 1007.4 |
| 20260506120036 | 55 | 277 | 3.5 | 7.0 | 0.00 | 0.46 | 0.03 | 86 | 1007.3 |
| 20260506115005 | 55 | 276 | 2.6 | 5.2 | 0.00 | 0.46 | 0.03 | 86 | 1007.3 |
| 20260506114013 | 55 | 269 | 3.5 | 7.8 | 0.00 | 0.46 | 0.03 | 84 | 1007.2 |
| 20260506113009 | 55 | 265 | 3.5 | 7.0 | 0.00 | 0.47 | 0.03 | 85 | 1007.1 |
| 20260506111014 | 56 | 258 | 4.3 | 7.8 | 0.00 | 0.47 | 0.03 | 86 | 1007.1 |
| 20260506110012 | 56 | 275 | 3.5 | 7.8 | 0.00 | 0.47 | 0.03 | 86 | 1007.1 |
| 20260506105036 | 56 | 275 | 3.5 | 7.8 | 0.00 | 0.49 | 0.03 | 85 | 1007.0 |
| 20260506105029 | 56 | 275 | 3.5 | 7.8 | 0.00 | 0.49 | 0.03 | 87 | 1006.9 |
| 20260506104031 | 55 | 269 | 3.5 | 7.0 | 0.00 | 0.49 | 0.03 | 87 | 1006.9 |
| 20260506103036 | 56 | 274 | 3.5 | 6.1 | 0.00 | 0.49 | 0.03 | 88 | 1006.8 |
| 20260506102008 | 56 | 271 | 2.6 | 5.2 | 0.01 | 0.49 | 0.03 | 90 | 1006.6 |
| 20260506101004 | 56 | 272 | 3.5 | 7.0 | 0.01 | 0.49 | 0.03 | 90 | 1006.6 |
| 20260506100005 | 55 | 265 | 4.3 | 7.8 | 0.01 | 0.49 | 0.03 | 90 | 1006.6 |
| 20260506095038 | 55 | 265 | 4.3 | 7.8 | 0.01 | 0.49 | 0.03 | 90 | 1006.6 |
| 20260506095031 | 55 | 265 | 4.3 | 7.8 | 0.01 | 0.49 | 0.03 | 94 | 1006.5 |
| 20260506094017 | 55 | 264 | 3.5 | 6.1 | 0.01 | 0.49 | 0.03 | 94 | 1006.5 |
| 20260506094015 | 55 | 264 | 3.5 | 6.1 | 0.01 | 0.49 | 0.03 | 95 | 1006.5 |
| 20260506093043 | 55 | 264 | 3.5 | 6.1 | 0.01 | 0.49 | 0.03 | 95 | 1006.5 |
| 20260506093038 | 55 | 264 | 3.5 | 6.1 | 0.01 | 0.49 | 0.03 | 95 | 1006.4 |
| 20260506092040 | 55 | 272 | 3.5 | 7.0 | 0.01 | 0.49 | 0.03 | 95 | 1006.4 |
| 20260506092034 | 55 | 272 | 3.5 | 7.0 | 0.00 | 0.48 | 0.02 | 96 | 1006.3 |
| 20260506091042 | 55 | 269 | 2.6 | 5.2 | 0.00 | 0.48 | 0.02 | 96 | 1006.3 |
| 20260506091036 | 55 | 269 | 2.6 | 5.2 | 0.00 | 0.48 | 0.02 | 95 | 1006.3 |
| 20260506090040 | 55 | 291 | 2.6 | 6.1 | 0.00 | 0.48 | 0.02 | 95 | 1006.3 |
| 20260506090033 | 55 | 291 | 2.6 | 6.1 | 0.00 | 0.48 | 0.02 | 93 | 1006.2 |
| 20260506085044 | 55 | 287 | 1.7 | 5.2 | 0.00 | 0.48 | 0.02 | 93 | 1006.2 |
| 20260506085039 | 55 | 287 | 1.7 | 5.2 | 0.00 | 0.48 | 0.02 | 92 | 1006.1 |
| 20260506084034 | 55 | 298 | 2.6 | 7.8 | 0.00 | 0.48 | 0.02 | 92 | 1006.1 |
| 20260506083042 | 55 | 280 | 2.6 | 6.1 | 0.00 | 0.48 | 0.02 | 92 | 1006.1 |
| 20260506083037 | 55 | 280 | 2.6 | 6.1 | 0.00 | 0.48 | 0.02 | 93 | 1006.0 |
| 20260506082014 | 55 | 282 | 2.6 | 6.1 | 0.00 | 0.48 | 0.02 | 93 | 1006.0 |
| 20260506082012 | 55 | 282 | 2.6 | 6.1 | 0.00 | 0.48 | 0.02 | 92 | 1005.9 |
| 20260506081014 | 55 | 278 | 3.5 | 5.2 | 0.00 | 0.48 | 0.02 | 93 | 1005.9 |
| 20260506073046 | 54 | 281 | 3.5 | 6.1 | 0.00 | 0.48 | 0.02 | 96 | 1006.0 |
| 20260506073040 | 53 | 281 | 3.5 | 6.1 | 0.00 | 0.48 | 0.02 | 97 | 1006.0 |
| 20260506072004 | 53 | 308 | 2.6 | 6.1 | 0.00 | 0.48 | 0.02 | 98 | 1006.1 |
| 20260506062037 | 52 | 318 | 0.9 | 2.6 | 0.02 | 0.48 | 0.02 | 99 | 1006.1 |
| 20260506062031 | 52 | 318 | 0.9 | 2.6 | 0.02 | 0.48 | 0.02 | 99 | 1006.1 |
| 20260506061005 | 51 | 346 | 0.9 | 3.5 | 0.02 | 0.48 | 0.02 | 98 | 1006.0 |
| 20260506051025 | 51 | 354 | 0.9 | 5.2 | 0.00 | 0.46 | 0.01 | 98 | 1005.9 |
| 20260506045037 | 51 | 17 | 0.9 | 1.7 | 0.00 | 0.46 | 0.01 | 97 | 1005.8 |
| 20260506044016 | 51 | 3 | 1.7 | 3.5 | 0.00 | 0.46 | 0.01 | 97 | 1005.8 |
| 20260506043024 | 51 | 3 | 1.7 | 3.5 | 0.00 | 0.46 | 0.01 | 97 | 1006.0 |
| 20260506042028 | 51 | 24 | 0.9 | 3.5 | 0.00 | 0.46 | 0.01 | 97 | 1006.0 |
| 20260506041029 | 51 | 316 | 0.9 | 2.6 | 0.00 | 0.46 | 0.01 | 97 | 1006.0 |
| 20260506040042 | 51 | 4 | 0.9 | 2.6 | 0.00 | 0.46 | 0.01 | 97 | 1006.0 |
| 20260506040037 | 51 | 4 | 0.9 | 2.6 | 0.00 | 0.46 | 0.01 | 97 | 1006.1 |
| 20260506035036 | 51 | 11 | 0.9 | 2.6 | 0.00 | 0.46 | 0.01 | 97 | 1006.2 |
| 20260506034005 | 51 | 4 | 0.9 | 1.7 | 0.00 | 0.46 | 0.01 | 97 | 1006.2 |
| 20260506033042 | 51 | 4 | 0.9 | 1.7 | 0.00 | 0.46 | 0.01 | 97 | 1006.3 |
| 20260506033038 | 51 | 4 | 0.9 | 1.7 | 0.00 | 0.46 | 0.01 | 97 | 1006.4 |
| 20260506032038 | 51 | 74 | 0.9 | 3.5 | 0.00 | 0.46 | 0.01 | 97 | 1006.4 |
| 20260506032033 | 51 | 74 | 0.9 | 3.5 | 0.00 | 0.46 | 0.01 | 98 | 1006.5 |
| 20260506031003 | 51 | 55 | 0.9 | 3.5 | 0.00 | 0.46 | 0.01 | 98 | 1006.5 |
| 20260506030004 | 51 | 103 | 0.9 | 3.5 | 0.00 | 0.46 | 0.01 | 98 | 1006.5 |
| 20260506025034 | 52 | 103 | 0.9 | 3.5 | 0.00 | 0.46 | 0.01 | 99 | 1006.4 |
| 20260506024024 | 52 | 66 | 0.9 | 2.6 | 0.00 | 0.46 | 0.01 | 99 | 1006.4 |
| 20260506023043 | 52 | 94 | 0.9 | 1.7 | 0.00 | 0.46 | 0.01 | 99 | 1006.3 |
| 20260506022035 | 52 | 93 | 0.9 | 2.6 | 0.00 | 0.46 | 0.01 | 99 | 1006.3 |
| 20260506021012 | 52 | 75 | 0.9 | 2.6 | 0.00 | 0.46 | 0.01 | 99 | 1006.3 |
| 20260506020011 | 52 | 70 | 0.0 | 1.7 | 0.00 | 0.46 | 0.01 | 99 | 1006.3 |
| 20260506015040 | 52 | 70 | 0.0 | 1.7 | 0.00 | 0.46 | 0.01 | 99 | 1006.3 |
| 20260506015035 | 53 | 70 | 0.0 | 1.7 | 0.00 | 0.46 | 0.01 | 99 | 1006.3 |
| 20260506014044 | 53 | 94 | 0.0 | 2.6 | 0.00 | 0.46 | 0.01 | 99 | 1006.3 |
| 20260506014039 | 53 | 94 | 0.0 | 2.6 | 0.00 | 0.46 | 0.01 | 99 | 1006.4 |
| 20260506013033 | 53 | 50 | 0.0 | 1.7 | 0.00 | 0.46 | 0.01 | 99 | 1006.5 |
| 20260506012023 | 53 | 327 | 0.9 | 3.5 | 0.00 | 0.46 | 0.01 | 99 | 1006.6 |
| 20260506011005 | 53 | 74 | 0.9 | 3.5 | 0.01 | 0.46 | 0.01 | 99 | 1006.7 |
| 20260506010037 | 53 | 74 | 0.9 | 3.5 | 0.01 | 0.46 | 0.01 | 99 | 1006.7 |
| 20260506010031 | 53 | 74 | 0.9 | 3.5 | 0.01 | 0.46 | 0.01 | 10 | 1006.9 |
| 20260506005009 | 53 | 19 | 0.9 | 2.6 | 0.01 | 0.46 | 0.01 | 99 | 1007.0 |
| 20260506004034 | 53 | 19 | 0.9 | 2.6 | 0.01 | 0.46 | 0.01 | 99 | 1007.0 |
| 20260506004029 | 53 | 19 | 0.9 | 2.6 | 0.01 | 0.46 | 0.01 | 10 | 1007.0 |
| 20260506003043 | 53 | 42 | 0.0 | 1.7 | 0.01 | 0.46 | 0.01 | 10 | 1007.1 |
| 20260506002042 | 52 | 26 | 0.9 | 2.6 | 0.01 | 0.46 | 0.01 | 10 | 1007.3 |
| 20260506001035 | 52 | 72 | 0.0 | 2.6 | 0.01 | 0.46 | 0.01 | 10 | 1007.3 |
| 20260506001029 | 51 | 72 | 0.0 | 2.6 | 0.00 | 0.46 | 0.00 | 10 | 1007.4 |
| 20260506000010 | 51 | 12 | 0.0 | 0.9 | 0.00 | 0.46 | 0.00 | 10 | 1007.4 |
| 20260505235017 | 51 | 45 | 0.0 | 1.7 | 0.00 | 0.46 | 0.00 | 10 | 1007.4 |
| 20260505235015 | 52 | 45 | 0.0 | 1.7 | 0.00 | 0.46 | 0.00 | 10 | 1007.4 |
| 20260505234137 | 51 | 45 | 0.0 | 1.7 | 0.00 | 0.46 | 0.00 | 10 | 1007.5 |
| 20260505233038 | 51 | 69 | 0.9 | 1.7 | 0.00 | 0.46 | 0.00 | 10 | 1007.5 |
| 20260505232030 | 51 | 113 | 0.9 | 1.7 | 0.00 | 0.46 | 0.00 | 10 | 1007.5 |
| 20260505231004 | 51 | 138 | 0.0 | 0.0 | 0.00 | 0.46 | 0.00 | 10 | 1007.5 |
| 20260505230008 | 51 | 138 | 0.0 | 0.0 | 0.00 | 0.46 | 0.00 | 10 | 1007.5 |
| 20260505225016 | 51 | 154 | 0.0 | 0.0 | 0.00 | 0.46 | 0.00 | 10 | 1007.5 |
| 20260505225013 | 51 | 154 | 0.0 | 0.0 | 0.00 | 0.46 | 0.00 | 10 | 1007.4 |
| 20260505224015 | 52 | 158 | 0.0 | 0.0 | 0.00 | 0.46 | 0.00 | 10 | 1007.5 |
| 20260505223015 | 52 | 99 | 0.9 | 0.9 | 0.00 | 0.46 | 0.00 | 10 | 1007.5 |
| 20260505222043 | 52 | 102 | 0.0 | 0.9 | 0.00 | 0.46 | 0.00 | 10 | 1007.5 |
| 20260505222036 | 52 | 102 | 0.0 | 0.9 | 0.00 | 0.46 | 0.00 | 10 | 1007.6 |
| 20260505221049 | 52 | 124 | 0.0 | 0.0 | 0.00 | 0.46 | 0.00 | 10 | 1007.6 |
| 20260505221043 | 52 | 124 | 0.0 | 0.0 | 0.00 | 0.46 | 0.00 | 10 | 1007.7 |
| 20260505220008 | 52 | 141 | 0.0 | 0.0 | 0.00 | 0.46 | 0.00 | 10 | 1007.7 |
| 20260505220005 | 52 | 131 | 0.0 | 0.0 | 0.00 | 0.46 | 0.00 | 10 | 1007.7 |
| 20260505215036 | 52 | 131 | 0.0 | 0.0 | 0.00 | 0.46 | 0.46 | 10 | 1007.7 |
| 20260505214047 | 52 | 126 | 0.0 | 0.0 | 0.00 | 0.46 | 0.46 | 10 | 1007.7 |
| 20260505214038 | 53 | 126 | 0.0 | 0.0 | 0.00 | 0.46 | 0.46 | 10 | 1007.7 |
| 20260505213041 | 53 | 133 | 0.0 | 0.0 | 0.00 | 0.46 | 0.46 | 10 | 1007.7 |
| 20260505212005 | 53 | 155 | 0.0 | 0.0 | 0.00 | 0.46 | 0.46 | 10 | 1007.7 |
| 20260505211041 | 54 | 155 | 0.0 | 0.0 | 0.00 | 0.46 | 0.46 | 99 | 1007.8 |
| 20260505210013 | 54 | 129 | 0.0 | 0.0 | 0.00 | 0.46 | 0.46 | 99 | 1007.8 |
| 20260505210011 | 54 | 129 | 0.0 | 0.0 | 0.00 | 0.46 | 0.46 | 99 | 1007.7 |
| 20260505205043 | 54 | 141 | 0.0 | 1.7 | 0.00 | 0.46 | 0.46 | 99 | 1007.7 |
| 20260505205037 | 54 | 141 | 0.0 | 1.7 | 0.00 | 0.46 | 0.46 | 97 | 1007.8 |